Time,TemperatureF,DewpointF,PressureIn,WindDirection,WindDirectionDegrees,WindSpeedMPH,WindSpeedGustMPH,Humidity,HourlyPrecipIn,Conditions,Clouds,dailyrainin,SoftwareType,DateUTC
2013-05-05 00:02:00,47.0,45.0,30.01,ESE,104,2.0,13.0,91,0.19,,,0.52,,2013-05-05 04:02:00,
2013-05-05 00:12:00,47.0,45.0,30.01,ESE,104,2.0,13.0,91,0.19,,,0.52,,2013-05-05 04:12:00,
2013-05-05 00:23:00,47.0,45.0,30.00,North,3,4.0,9.0,91,0.17,,,0.54,,2013-05-05 04:23:00,
2013-05-05 00:33:00,47.0,45.0,29.98,NE,46,3.0,9.0,91,0.19,,,0.62,,2013-05-05 04:33:00,
2013-05-05 00:43:00,47.0,45.0,29.98,NE,46,3.0,9.0,91,0.19,,,0.62,,2013-05-05 04:43:00,
2013-05-05 00:52:00,47.0,45.0,29.96,NE,35,7.0,17.0,91,0.21,,,0.66,,2013-05-05 04:52:00,
2013-05-05 01:02:00,47.0,45.0,29.97,ESE,105,3.0,14.0,91,0.17,,,0.68,,2013-05-05 05:02:00,
2013-05-05 01:12:00,47.0,45.0,29.97,ESE,105,3.0,14.0,91,0.17,,,0.68,,2013-05-05 05:12:00,
2013-05-05 01:22:00,47.0,45.0,29.96,North,3,7.0,17.0,91,0.14,,,0.68,,2013-05-05 05:22:00,
2013-05-05 01:32:00,47.0,45.0,29.98,North,2,5.0,13.0,91,0.09,,,0.71,,2013-05-05 05:32:00,
2013-05-05 01:42:00,47.0,45.0,29.98,North,2,5.0,13.0,91,0.09,,,0.71,,2013-05-05 05:42:00,
2013-05-05 01:51:00,47.0,45.0,29.97,NNW,332,6.0,14.0,91,0.06,,,0.72,,2013-05-05 05:51:00,
2013-05-05 02:01:00,47.0,45.0,29.97,ENE,71,3.0,15.0,91,0.07,,,0.75,,2013-05-05 06:01:00,
2013-05-05 02:12:00,47.0,45.0,29.97,ENE,71,3.0,15.0,91,0.07,,,0.75,,2013-05-05 06:12:00,
2013-05-05 02:21:00,47.0,45.0,29.94,North,9,7.0,20.0,91,0.09,,,0.77,,2013-05-05 06:21:00,
2013-05-05 02:32:00,47.0,45.0,29.93,ENE,67,6.0,14.0,91,0.08,,,0.79,,2013-05-05 06:32:00,
2013-05-05 02:42:00,47.0,45.0,29.93,ENE,67,6.0,14.0,91,0.08,,,0.79,,2013-05-05 06:42:00,
2013-05-05 02:52:00,47.0,45.0,29.92,ENE,61,4.0,15.0,91,0.08,,,0.80,,2013-05-05 06:52:00,
2013-05-05 03:01:00,47.0,45.0,29.93,ESE,119,9.0,18.0,91,0.08,,,0.83,,2013-05-05 07:01:00,
2013-05-05 03:11:00,47.0,45.0,29.93,ESE,119,9.0,18.0,91,0.08,,,0.83,,2013-05-05 07:11:00,
2013-05-05 03:22:00,47.0,45.0,29.92,NE,35,4.0,14.0,91,0.07,,,0.84,,2013-05-05 07:22:00,
2013-05-05 03:32:00,47.0,45.0,29.91,NE,40,6.0,13.0,91,0.09,,,0.88,,2013-05-05 07:32:00,
2013-05-05 03:42:00,47.0,45.0,29.91,NE,40,6.0,13.0,91,0.09,,,0.88,,2013-05-05 07:42:00,
2013-05-05 03:52:00,47.0,45.0,29.91,NE,40,2.0,16.0,91,0.10,,,0.90,,2013-05-05 07:52:00,
2013-05-05 04:02:00,47.0,45.0,29.91,ENE,58,4.0,17.0,91,0.12,,,0.95,,2013-05-05 08:02:00,
2013-05-05 04:11:00,47.0,45.0,29.91,ENE,58,4.0,17.0,91,0.12,,,0.95,,2013-05-05 08:11:00,
2013-05-05 04:21:00,47.0,45.0,29.92,ENE,60,6.0,14.0,91,0.18,,,1.02,,2013-05-05 08:21:00,
2013-05-05 04:32:00,47.0,45.0,29.91,East,80,4.0,11.0,91,0.26,,,1.14,,2013-05-05 08:32:00,
2013-05-05 04:42:00,47.0,45.0,29.91,East,80,4.0,11.0,91,0.26,,,1.14,,2013-05-05 08:42:00,
2013-05-05 04:53:00,47.0,45.0,29.91,NE,56,4.0,11.0,92,0.30,,,1.20,,2013-05-05 08:53:00,
2013-05-05 05:01:00,46.0,44.0,29.92,ESE,109,1.0,14.0,91,0.39,,,1.34,,2013-05-05 09:01:00,
2013-05-05 05:11:00,46.0,44.0,29.92,ESE,109,1.0,14.0,91,0.39,,,1.34,,2013-05-05 09:11:00,
2013-05-05 05:21:00,46.0,44.0,29.92,North,357,6.0,11.0,91,0.38,,,1.40,,2013-05-05 09:21:00,
2013-05-05 05:33:00,46.0,44.0,29.91,East,95,6.0,17.0,91,0.38,,,1.52,,2013-05-05 09:33:00,
2013-05-05 05:42:00,46.0,44.0,29.91,East,95,6.0,17.0,91,0.38,,,1.52,,2013-05-05 09:42:00,
2013-05-05 05:52:00,45.0,43.0,29.89,NNE,31,6.0,14.0,91,0.40,,,1.60,,2013-05-05 09:52:00,
2013-05-05 06:03:00,45.0,43.0,29.89,NE,40,3.0,15.0,91,0.32,,,1.66,,2013-05-05 10:03:00,
2013-05-05 06:12:00,45.0,43.0,29.89,NE,40,3.0,15.0,91,0.32,,,1.66,,2013-05-05 10:12:00,
2013-05-05 06:22:00,45.0,43.0,29.88,ENE,59,6.0,15.0,92,0.27,,,1.66,,2013-05-05 10:22:00,
2013-05-05 06:32:00,45.0,43.0,29.89,North,2,6.0,14.0,91,0.16,,,1.68,,2013-05-05 10:32:00,
2013-05-05 06:42:00,45.0,43.0,29.89,North,2,6.0,14.0,91,0.16,,,1.68,,2013-05-05 10:42:00,
2013-05-05 06:52:00,44.0,42.0,29.92,North,3,9.0,14.0,91,0.14,,,1.73,,2013-05-05 10:52:00,
2013-05-05 07:02:00,44.0,42.0,29.89,NE,45,7.0,18.0,92,0.14,,,1.80,,2013-05-05 11:02:00,
2013-05-05 07:12:00,44.0,42.0,29.89,NE,45,7.0,18.0,92,0.14,,,1.80,,2013-05-05 11:12:00,
2013-05-05 07:22:00,44.0,42.0,29.88,East,91,6.0,17.0,92,0.16,,,1.82,,2013-05-05 11:22:00,
2013-05-05 07:32:00,44.0,42.0,29.90,South,185,4.0,17.0,91,0.19,,,1.87,,2013-05-05 11:32:00,
2013-05-05 07:42:00,44.0,42.0,29.90,South,185,4.0,17.0,91,0.19,,,1.87,,2013-05-05 11:42:00,
2013-05-05 07:52:00,44.0,42.0,29.90,ENE,58,3.0,14.0,91,0.17,,,1.89,,2013-05-05 11:52:00,
2013-05-05 08:02:00,44.0,42.0,29.91,NNE,21,3.0,12.0,92,0.18,,,1.98,,2013-05-05 12:02:00,
2013-05-05 08:11:00,44.0,42.0,29.91,NNE,21,3.0,12.0,92,0.18,,,1.98,,2013-05-05 12:11:00,
2013-05-05 08:22:00,44.0,42.0,29.91,ENE,64,7.0,16.0,92,0.20,,,2.02,,2013-05-05 12:22:00,
2013-05-05 08:32:00,44.0,42.0,29.92,East,94,4.0,18.0,91,0.23,,,2.10,,2013-05-05 12:32:00,
2013-05-05 08:42:00,44.0,42.0,29.92,East,94,4.0,18.0,91,0.23,,,2.10,,2013-05-05 12:42:00,
2013-05-05 08:52:00,44.0,42.0,29.92,NE,41,3.0,11.0,91,0.25,,,2.14,,2013-05-05 12:52:00,
2013-05-05 09:01:00,43.0,41.0,29.92,North,0,8.0,16.0,92,0.25,,,2.22,,2013-05-05 13:01:00,
2013-05-05 09:11:00,43.0,41.0,29.92,North,0,8.0,16.0,92,0.25,,,2.22,,2013-05-05 13:11:00,
2013-05-05 09:21:00,43.0,41.0,29.92,SE,124,6.0,16.0,92,0.23,,,2.25,,2013-05-05 13:21:00,
2013-05-05 09:32:00,44.0,42.0,29.91,ESE,111,7.0,26.0,93,0.22,,,2.31,,2013-05-05 13:32:00,
2013-05-05 09:42:00,44.0,42.0,29.91,ESE,111,7.0,26.0,93,0.22,,,2.31,,2013-05-05 13:42:00,
2013-05-05 09:52:00,44.0,42.0,29.90,NNE,27,6.0,13.0,93,0.18,,,2.32,,2013-05-05 13:52:00,
2013-05-05 10:02:00,44.0,42.0,29.91,ENE,67,5.0,15.0,93,0.20,,,2.41,,2013-05-05 14:02:00,
2013-05-05 10:11:00,44.0,42.0,29.91,ENE,67,5.0,15.0,93,0.20,,,2.41,,2013-05-05 14:11:00,
2013-05-05 10:21:00,44.0,42.0,29.91,ENE,59,5.0,16.0,94,0.21,,,2.46,,2013-05-05 14:21:00,
2013-05-05 10:32:00,44.0,42.0,29.92,NNE,23,4.0,13.0,93,0.25,,,2.56,,2013-05-05 14:32:00,
2013-05-05 10:42:00,44.0,42.0,29.92,NNE,23,4.0,13.0,93,0.25,,,2.56,,2013-05-05 14:42:00,
2013-05-05 10:52:00,45.0,43.0,29.90,ENE,72,5.0,17.0,94,0.28,,,2.60,,2013-05-05 14:52:00,
2013-05-05 11:02:00,45.0,43.0,29.91,NE,39,2.0,18.0,94,0.31,,,2.71,,2013-05-05 15:02:00,
2013-05-05 11:11:00,45.0,43.0,29.91,NE,39,2.0,18.0,94,0.31,,,2.71,,2013-05-05 15:11:00,
2013-05-05 11:21:00,45.0,43.0,29.91,ENE,70,3.0,10.0,94,0.31,,,2.77,,2013-05-05 15:21:00,
2013-05-05 11:33:00,44.0,42.0,29.92,ENE,73,2.0,13.0,94,0.30,,,2.86,,2013-05-05 15:33:00,
2013-05-05 11:43:00,44.0,42.0,29.92,ENE,73,2.0,13.0,94,0.30,,,2.86,,2013-05-05 15:43:00,
2013-05-05 11:53:00,45.0,43.0,29.93,East,93,2.0,6.0,94,0.31,,,2.91,,2013-05-05 15:53:00,
2013-05-05 12:03:00,45.0,43.0,29.93,East,82,3.0,9.0,94,0.29,,,2.95,,2013-05-05 16:03:00,
2013-05-05 12:12:00,45.0,43.0,29.93,East,82,3.0,9.0,94,0.29,,,2.95,,2013-05-05 16:12:00,
2013-05-05 12:23:00,44.0,42.0,29.92,East,93,4.0,9.0,94,0.25,,,3.02,,2013-05-05 16:23:00,
2013-05-05 12:32:00,44.0,42.0,29.93,East,80,6.0,12.0,94,0.26,,,3.12,,2013-05-05 16:32:00,
2013-05-05 12:42:00,44.0,42.0,29.93,East,80,6.0,12.0,94,0.26,,,3.12,,2013-05-05 16:42:00,
2013-05-05 12:52:00,44.0,42.0,29.92,East,83,5.0,16.0,94,0.25,,,3.16,,2013-05-05 16:52:00,
2013-05-05 13:02:00,44.0,42.0,29.91,North,7,8.0,20.0,94,0.24,,,3.22,,2013-05-05 17:02:00,
2013-05-05 13:12:00,44.0,42.0,29.91,North,7,8.0,20.0,94,0.24,,,3.22,,2013-05-05 17:12:00,
2013-05-05 13:23:00,44.0,42.0,29.90,ENE,78,7.0,17.0,94,0.22,,,3.24,,2013-05-05 17:23:00,
2013-05-05 13:32:00,45.0,43.0,29.90,SE,137,5.0,20.0,94,0.18,,,3.29,,2013-05-05 17:32:00,
2013-05-05 13:42:00,45.0,43.0,29.90,SE,137,5.0,20.0,94,0.18,,,3.29,,2013-05-05 17:42:00,
2013-05-05 13:52:00,45.0,43.0,29.91,NNW,346,4.0,14.0,94,0.15,,,3.31,,2013-05-05 17:52:00,
2013-05-05 14:01:00,45.0,43.0,29.89,ENE,73,6.0,19.0,94,0.16,,,3.38,,2013-05-05 18:01:00,
2013-05-05 14:12:00,45.0,43.0,29.89,ENE,73,6.0,19.0,94,0.16,,,3.38,,2013-05-05 18:12:00,
2013-05-05 14:21:00,45.0,43.0,29.90,North,355,10.0,18.0,93,0.15,,,3.39,,2013-05-05 18:21:00,
2013-05-05 14:32:00,45.0,43.0,29.88,NE,41,6.0,19.0,94,0.11,,,3.40,,2013-05-05 18:32:00,
2013-05-05 14:42:00,45.0,43.0,29.88,NE,41,6.0,19.0,94,0.11,,,3.40,,2013-05-05 18:42:00,
2013-05-05 14:52:00,45.0,43.0,29.88,NE,47,6.0,19.0,94,0.12,,,3.43,,2013-05-05 18:52:00,
2013-05-05 15:01:00,46.0,44.0,29.88,NNW,348,8.0,13.0,94,0.11,,,3.49,,2013-05-05 19:01:00,
2013-05-05 15:11:00,46.0,44.0,29.88,NNW,348,8.0,13.0,94,0.11,,,3.49,,2013-05-05 19:11:00,
2013-05-05 15:21:00,46.0,44.0,29.88,SSE,162,7.0,17.0,94,0.15,,,3.54,,2013-05-05 19:21:00,
2013-05-05 15:32:00,46.0,44.0,29.88,NNW,347,8.0,16.0,93,0.20,,,3.60,,2013-05-05 19:32:00,
2013-05-05 15:42:00,46.0,44.0,29.88,NNW,347,8.0,16.0,93,0.20,,,3.60,,2013-05-05 19:42:00,
2013-05-05 15:52:00,46.0,44.0,29.88,NNE,19,4.0,13.0,93,0.21,,,3.64,,2013-05-05 19:52:00,
2013-05-05 16:01:00,46.0,44.0,29.89,NNE,13,3.0,11.0,93,0.22,,,3.71,,2013-05-05 20:01:00,
2013-05-05 16:11:00,46.0,44.0,29.89,NNE,13,3.0,11.0,93,0.22,,,3.71,,2013-05-05 20:11:00,
2013-05-05 16:21:00,46.0,44.0,29.88,ESE,121,2.0,11.0,93,0.20,,,3.74,,2013-05-05 20:21:00,
2013-05-05 16:32:00,46.0,44.0,29.88,NE,34,8.0,15.0,94,0.18,,,3.78,,2013-05-05 20:32:00,
2013-05-05 16:42:00,46.0,44.0,29.88,NE,34,8.0,15.0,94,0.18,,,3.78,,2013-05-05 20:42:00,
2013-05-05 16:52:00,46.0,44.0,29.88,North,3,6.0,14.0,94,0.14,,,3.78,,2013-05-05 20:52:00,
2013-05-05 17:02:00,46.0,44.0,29.87,East,87,5.0,12.0,94,0.08,,,3.77,,2013-05-05 21:02:00,
2013-05-05 17:11:00,46.0,44.0,29.87,East,87,5.0,12.0,94,0.08,,,3.77,,2013-05-05 21:11:00,
2013-05-05 17:21:00,46.0,44.0,29.86,North,3,6.0,12.0,94,0.06,,,3.79,,2013-05-05 21:21:00,
2013-05-05 17:33:00,46.0,44.0,29.86,NNE,27,7.0,18.0,93,0.05,,,3.82,,2013-05-05 21:33:00,
2013-05-05 17:42:00,46.0,44.0,29.86,NNE,27,7.0,18.0,93,0.05,,,3.82,,2013-05-05 21:42:00,
2013-05-05 17:53:00,46.0,44.0,29.86,NE,48,8.0,18.0,92,0.06,,,3.83,,2013-05-05 21:53:00,
2013-05-05 18:03:00,46.0,44.0,29.85,ESE,114,4.0,14.0,93,0.12,,,3.89,,2013-05-05 22:03:00,
2013-05-05 18:12:00,46.0,44.0,29.85,ESE,114,4.0,14.0,93,0.12,,,3.89,,2013-05-05 22:12:00,
2013-05-05 18:22:00,46.0,44.0,29.86,East,86,8.0,18.0,92,0.11,,,3.90,,2013-05-05 22:22:00,
2013-05-05 18:33:00,46.0,44.0,29.85,North,357,6.0,15.0,92,0.14,,,3.96,,2013-05-05 22:33:00,
2013-05-05 18:42:00,46.0,44.0,29.85,North,357,6.0,15.0,92,0.14,,,3.96,,2013-05-05 22:42:00,
2013-05-05 18:52:00,46.0,44.0,29.85,North,1,5.0,16.0,92,0.16,,,3.99,,2013-05-05 22:52:00,
2013-05-05 19:02:00,46.0,44.0,29.85,North,7,6.0,14.0,92,0.18,,,4.06,,2013-05-05 23:02:00,
2013-05-05 19:12:00,46.0,44.0,29.85,North,7,6.0,14.0,92,0.18,,,4.06,,2013-05-05 23:12:00,
2013-05-05 19:21:00,46.0,44.0,29.84,NNE,14,5.0,14.0,92,0.21,,,4.10,,2013-05-05 23:21:00,
2013-05-05 19:32:00,47.0,45.0,29.83,SSE,156,6.0,21.0,93,0.28,,,4.22,,2013-05-05 23:32:00,
2013-05-05 19:42:00,47.0,45.0,29.83,SSE,156,6.0,21.0,93,0.28,,,4.22,,2013-05-05 23:42:00,
2013-05-05 19:52:00,47.0,45.0,29.83,NNE,15,9.0,16.0,93,0.28,,,4.26,,2013-05-05 23:52:00,
2013-05-05 20:01:00,47.0,45.0,29.83,North,359,6.0,14.0,94,0.26,,,4.30,,2013-05-06 00:01:00,
2013-05-05 20:11:00,47.0,45.0,29.83,North,359,6.0,14.0,94,0.26,,,4.30,,2013-05-06 00:11:00,
2013-05-05 20:21:00,47.0,45.0,29.84,NE,52,6.0,19.0,94,0.24,,,4.32,,2013-05-06 00:21:00,
2013-05-05 20:32:00,47.0,45.0,29.85,East,80,4.0,11.0,93,0.21,,,4.41,,2013-05-06 00:32:00,
2013-05-05 20:41:00,47.0,45.0,29.85,East,80,4.0,11.0,93,0.21,,,4.41,,2013-05-06 00:41:00,
2013-05-05 20:51:00,47.0,45.0,29.85,NNE,24,4.0,11.0,94,0.20,,,4.44,,2013-05-06 00:51:00,
2013-05-05 21:01:00,48.0,46.0,29.84,NNW,337,4.0,10.0,94,0.20,,,4.46,,2013-05-06 01:01:00,
2013-05-05 21:11:00,48.0,46.0,29.84,NNW,337,4.0,10.0,94,0.20,,,4.46,,2013-05-06 01:11:00,
2013-05-05 21:21:00,48.0,46.0,29.84,East,83,2.0,8.0,94,0.20,,,4.48,,2013-05-06 01:21:00,
2013-05-05 21:32:00,48.0,46.0,29.84,ENE,67,2.0,12.0,94,0.19,,,4.56,,2013-05-06 01:32:00,
2013-05-05 21:42:00,48.0,46.0,29.84,ENE,67,2.0,12.0,94,0.19,,,4.56,,2013-05-06 01:42:00,
2013-05-05 21:52:00,48.0,46.0,29.84,NE,48,3.0,8.0,94,0.20,,,4.60,,2013-05-06 01:52:00,
2013-05-05 22:02:00,49.0,48.0,29.83,North,11,4.0,10.0,95,0.25,,,4.64,,2013-05-06 02:02:00,
2013-05-05 22:12:00,49.0,48.0,29.83,North,11,4.0,10.0,95,0.25,,,4.64,,2013-05-06 02:12:00,
2013-05-05 22:21:00,49.0,48.0,29.83,NE,52,1.0,7.0,95,0.26,,,4.67,,2013-05-06 02:21:00,
2013-05-05 22:32:00,49.0,48.0,29.83,NNE,20,2.0,9.0,95,0.26,,,4.75,,2013-05-06 02:32:00,
2013-05-05 22:42:00,49.0,48.0,29.83,NNE,20,2.0,9.0,95,0.26,,,4.75,,2013-05-06 02:42:00,
2013-05-05 22:51:00,50.0,49.0,29.83,ENE,60,5.0,15.0,95,0.29,,,4.82,,2013-05-06 02:51:00,
2013-05-05 23:02:00,50.0,49.0,29.83,ESE,106,4.0,7.0,95,0.30,,,4.78,,2013-05-06 03:02:00,
2013-05-05 23:11:00,50.0,49.0,29.83,ESE,106,4.0,7.0,95,0.30,,,4.78,,2013-05-06 03:11:00,
2013-05-05 23:22:00,50.0,49.0,29.83,SE,137,2.0,14.0,95,0.35,,,4.86,,2013-05-06 03:22:00,
2013-05-05 23:33:00,51.0,50.0,29.83,North,7,5.0,15.0,95,0.40,,,4.99,,2013-05-06 03:33:00,
2013-05-05 23:42:00,51.0,50.0,29.83,North,7,5.0,15.0,95,0.40,,,4.99,,2013-05-06 03:42:00,
2013-05-05 23:52:00,51.0,50.0,29.83,ESE,104,5.0,11.0,95,0.40,,,5.05,,2013-05-06 03:52:00,